Weather History for Dickinson, ND

Change the Weather History Date:

Wednesday, October 31, 2012

  Actual Average Record
Temperature  
Mean Temperature 43 °F 37 °F  
Max Temperature 52 °F 49 °F 80 °F (1990)
Min Temperature 33 °F 26 °F 0 °F (2002)
Degree Days  
Heating Degree Days 22 28  
Month to date heating degree days 713 655  
Since 1 July heating degree days 937 1011  
Cooling Degree Days 0 0  
Month to date cooling degree days 0 1  
Year to date cooling degree days 591 419  
Moisture  
Dew Point 36 °F    
Average Humidity 78    
Maximum Humidity 92    
Minimum Humidity 63    
Precipitation  
Precipitation 0.00 in 0.03 in 0.95 in (1974)
Month to date precipitation 1.34 1.23  
Year to date precipitation 9.93 14.99  
Sea Level Pressure  
Sea Level Pressure 30.04 in    
Wind  
Wind Speed 9 mph (North)    
Max Wind Speed 17 mph    
Max Gust Speed 21 mph    
Visibility 10 miles    
Events      
T = Trace of Precipitation, MM = Missing Value Source: NWS Daily Summary

Daily Weather History Graph

Daily Weather History Graph

Search for Another Location

Airport:

Trip Planner

Search our weather history database for the weather conditions in past years. The results will help you decide how hot, cold, wet, or windy it might be!

Date:

Astronomy

Oct. 31, 2012 Rise Set
Actual Time 7:32 AM MDT 5:36 PM MDT
Civil Twilight 7:01 AM MDT 6:07 PM MDT
Nautical Twilight 6:25 AM MDT 6:43 PM MDT
Astronomical Twilight 5:50 AM MDT 7:18 PM MDT
Moon 6:41 PM MDT (10/31) 9:22 AM MDT (10/31)
Length of Visible Light 11h 06m
Length of Day
10h 03m
Full, 97% of the Moon is Illuminated
Oct 31
Full
Nov 6
Last Quarter
Nov 13
New
Nov 20
First Quarter
Nov 28
Full

Hourly Weather History & Observations

Time (MDT) Temp. Windchill Dew Point Humidity Pressure Visibility Wind Dir Wind Speed Gust Speed Precip Events Conditions
12:56 AM 37.0 °F 31.0 °F 33.1 °F 86% 29.96 in 10.0 mi SSW 8.1 mph - N/A   Clear
1:56 AM 39.0 °F 34.0 °F 34.0 °F 82% 29.94 in 10.0 mi South 6.9 mph - N/A   Clear
2:56 AM 36.0 °F 33.3 °F 32.0 °F 86% 29.96 in 10.0 mi SW 3.5 mph - N/A   Clear
3:56 AM 36.0 °F 32.1 °F 33.1 °F 89% 29.94 in 10.0 mi SSE 4.6 mph - N/A   Partly Cloudy
4:56 AM 39.0 °F - 35.1 °F 86% 29.94 in 10.0 mi Calm Calm - N/A   Overcast
5:56 AM 41.0 °F 39.0 °F 37.0 °F 86% 29.95 in 10.0 mi SSE 3.5 mph - N/A   Overcast
6:56 AM 41.0 °F 39.0 °F 37.0 °F 86% 29.95 in 10.0 mi South 3.5 mph - N/A   Overcast
7:56 AM 43.0 °F 37.7 °F 37.0 °F 80% 29.98 in 10.0 mi WNW 9.2 mph - N/A   Overcast
8:56 AM 42.1 °F 36.6 °F 37.0 °F 82% 30.00 in 10.0 mi WNW 9.2 mph - N/A   Mostly Cloudy
9:56 AM 51.1 °F - 39.9 °F 66% 29.99 in 10.0 mi NW 11.5 mph - N/A   Mostly Cloudy
10:56 AM 50.0 °F - 39.0 °F 66% 30.03 in 10.0 mi NNW 12.7 mph 19.6 mph N/A   Overcast
11:56 AM 46.9 °F - 39.9 °F 77% 30.06 in 10.0 mi North 12.7 mph - N/A   Overcast
12:56 PM 48.9 °F - 41.0 °F 74% 30.05 in 10.0 mi North 12.7 mph - N/A   Overcast
1:56 PM 46.0 °F 39.6 °F 39.0 °F 76% 30.07 in 10.0 mi NNW 15.0 mph - N/A   Overcast
2:56 PM 46.9 °F - 39.0 °F 74% 30.08 in 10.0 mi NNW 11.5 mph - N/A   Overcast
3:17 PM 46.4 °F 40.7 °F 37.4 °F 71% 30.05 in 10.0 mi NNW 12.7 mph - N/A   Overcast
3:56 PM 46.0 °F 40.2 °F 37.0 °F 71% 30.10 in 10.0 mi NNW 12.7 mph - N/A   Overcast
4:56 PM 44.1 °F 38.6 °F 36.0 °F 73% 30.11 in 10.0 mi North 10.4 mph - N/A   Overcast
5:56 PM 39.0 °F 33.4 °F 34.0 °F 82% 30.14 in 10.0 mi North 8.1 mph - N/A   Overcast
6:04 PM 39.2 °F 33.6 °F 33.8 °F 81% 30.08 in 10.0 mi North 8.1 mph - N/A   Overcast
6:45 PM 37.4 °F 29.3 °F 33.8 °F 87% 30.08 in 10.0 mi NNE 12.7 mph - N/A   Overcast
6:56 PM 37.0 °F 29.8 °F 33.1 °F 86% 30.14 in 10.0 mi NNE 10.4 mph - N/A   Overcast
7:56 PM 37.0 °F 31.0 °F 33.1 °F 86% 30.14 in 10.0 mi NE 8.1 mph - N/A   Overcast
8:56 PM 36.0 °F 28.0 °F 34.0 °F 93% 30.14 in 8.0 mi NE 11.5 mph - N/A   Overcast
10:56 PM 35.1 °F 27.4 °F 33.1 °F 92% 30.13 in 9.0 mi ENE 10.4 mph - N/A   Overcast
11:56 PM 34.0 °F 26.0 °F 30.0 °F 85% 30.13 in 10.0 mi ENE 10.4 mph - N/A   Overcast